Location: Tomatin
(57.3367°N, 3.9908°W)
Time: 20:10:43
(UTC+00:00)

ISS - Visible Passes

Search period start: 23 February 2018 00:00
Search period end: 05 March 2018 00:00
Orbit: 402 x 407 km, 51.6° (Epoch: 24 February)

Date Brightness Start Highest point End Pass type
(mag) Time Alt. Az. Time Alt. Az. Time Alt. Az.
01 Mar -0.8 06:00:47 10° SSE 06:01:47 11° SSE 06:02:47 10° SE visible
03 Mar -1.3 05:51:08 10° SSW 05:53:19 17° SSE 05:55:30 10° ESE visible
04 Mar -1.1 04:59:49 10° S 05:01:17 12° SSE 05:02:45 10° ESE visible
